This is the latest recevied weather packets stored in our database for station/object DM4WH-13. If no packets are shown the sender has not sent any weather packets the latest 10 day(s).
| Time | Temp. | Humidity | Pressure | Rain* | Wind** | Luminosity | Snow |
|---|---|---|---|---|---|---|---|
| 1777649113 | 22.22° C | 35% | 1028.2 hPa | 0 mm | 0.45 m/s, 111° | - | - |
| 1777648825 | 22.78° C | 35% | 1028.3 hPa | 0 mm | 0.45 m/s, 55° | - | - |
| 1777648512 | 22.78° C | 34% | 1028.3 hPa | 0 mm | 0.45 m/s, 113° | - | - |
| 1777648225 | 22.22° C | 36% | 1028.4 hPa | 0 mm | 0.45 m/s, 108° | - | - |
| 1777647913 | 22.78° C | 33% | 1028.4 hPa | 0 mm | 0.45 m/s, 223° | - | - |
| 1777647625 | 22.78° C | 36% | 1028.4 hPa | 0 mm | 0.45 m/s, 81° | - | - |
| 1777647312 | 22.22° C | 36% | 1028.5 hPa | 0 mm | 0.45 m/s, 92° | - | - |
| 1777647025 | 22.78° C | 35% | 1028.5 hPa | 0 mm | 0.45 m/s, 117° | - | - |
| 1777646712 | 22.78° C | 35% | 1028.6 hPa | 0 mm | 0.45 m/s, 136° | - | - |
| 1777646437 | 22.78° C | 33% | 1028.6 hPa | 0 mm | 0.45 m/s, 317° | - | - |
| 1777646125 | 22.22° C | 36% | 1028.6 hPa | 0 mm | 0.45 m/s, 313° | - | - |
| 1777645812 | 22.22° C | 34% | 1028.6 hPa | 0 mm | 0.45 m/s, 117° | - | - |
| 1777645524 | 22.22° C | 34% | 1028.7 hPa | 0 mm | 0.45 m/s, 123° | - | - |
| 1777645212 | 22.22° C | 34% | 1028.7 hPa | 0 mm | 0.45 m/s, 136° | - | - |
| 1777644925 | 21.11° C | 35% | 1028.8 hPa | 0 mm | 0.89 m/s, 280° | - | - |
| 1777644612 | 21.11° C | 34% | 1028.8 hPa | 0 mm | 0.45 m/s, 295° | - | - |
| 1777644325 | 21.11° C | 36% | 1028.9 hPa | 0 mm | 0.45 m/s, 270° | - | - |
| 1777644012 | 21.11° C | 36% | 1028.9 hPa | 0 mm | 0.45 m/s, 305° | - | - |
| 1777643725 | 21.11° C | 35% | 1029 hPa | 0 mm | 0.45 m/s, 276° | - | - |
| 1777643412 | 21.11° C | 37% | 1029 hPa | 0 mm | 0.45 m/s, 282° | - | - |
| 1777643124 | 20° C | 36% | 1029.1 hPa | 0 mm | 0.45 m/s, 288° | - | - |
| 1777642812 | 20° C | 37% | 1029.1 hPa | 0 mm | 0.89 m/s, 319° | - | - |
| 1777642525 | 21.11° C | 37% | 1029.1 hPa | 0 mm | 0.45 m/s, 324° | - | - |
| 1777642212 | 21.11° C | 34% | 1029.1 hPa | 0 mm | 0.45 m/s, 300° | - | - |
| 1777641925 | 22.22° C | 35% | 1029.2 hPa | 0 mm | 0.89 m/s, 287° | - | - |
* Rain latest hour (hover to see other rain measurements)
** Current wind speed in m/s (hover to see current wind gust speed)